Current Version              Previous Version:    01  02  03  04  05  06  07  08  09  10  11  12  13  14  15  16  17  18  19  20  21  22  23  24  25  26  27  28  29  30  
   31  32  33  34  35  36  37  38  39  40  41  42  43  44  45  46  47  48  49  50  51  52  53  54  55  56  57  58  59  60  

[Printable]
661
ASUS44 KFWD 220402
RWRTX
NORTH TEXAS HOURLY WEATHER ROUNDUP
NATIONAL WEATHER SERVICE FORT WORTH TX
ISSUED BY NWS SHREVEPORT LA
1000 PM CST FRI NOV 21 2014

NOTE: "FAIR" INDICATES FEW OR NO CLOUDS BELOW 12,000 FEET WITH NO
SIGNIFICANT WEATHER AND/OR OBSTRUCTIONS TO VISIBILITY.

TXZ118-119-220500-
DALLAS/FORT WORTH METROPLEX

CITY           SKY/WX    TMP DP  RH WIND       PRES   REMARKS
DFW AIRPORT    LGT RAIN  63  62  97 SE17      30.08R
DALLAS LOVE    DRIZZLE   64  61  90 SE21      30.09R
FTW MEACHAM    CLOUDY    66  62  87 SE16      30.06R
DAL-EXECUTIVE  CLOUDY    64  61  90 SE14      30.09R FOG
FTW-ALLIANCE   CLOUDY    65  62  90 SE14G20   30.06S
FTW-NAS-JRB    CLOUDY    71  60  68 SE14      30.11S
ARLINGTON      CLOUDY    66  61  84 SE14G22   30.08R
GRAND PRAIRIE  CLOUDY    65  64  96 SE12G17   30.10R
ADDISON        CLOUDY    64  61  88 SE14G22   30.09F FOG
$$

TXZ091>094-102>105-117-120-121-131>134-220500-
NORTH CENTRAL TEXAS

CITY           SKY/WX    TMP DP  RH WIND       PRES   REMARKS
SHRMAN/DENISON CLOUDY    63  63  98 SE14      30.10S
DENTON         CLOUDY    65  61  87 S17       30.07S
MCKINNEY       CLOUDY    63  60  90 S14       30.10R
TERRELL        CLOUDY    63  59  87 SE16G23   30.13R
$$

TXZ083>090-098>101-113>116-127>130-139>142-154-155-220500-
WESTERN NORTH TEXAS

CITY           SKY/WX    TMP DP  RH WIND       PRES   REMARKS
WICHITA FALLS  MOCLDY    54  51  90 SE6       30.02S
ABILENE        MOCLDY    62  53  72 SE12      30.01R
MINERAL WELLS  CLOUDY    65  62  90 SE13      30.03S
STEPHENVILLE   CLOUDY    65  62  88 SE9       30.07F
$$

TXZ143>147-156>162-174-175-220500-
CENTRAL TEXAS

CITY           SKY/WX    TMP DP  RH WIND       PRES   REMARKS
WACO           LGT RAIN  65  63  93 SE17      30.07S
WACO-MCGREGOR  CLOUDY    64  59  82 SE17      30.08F
CORSICANA      LGT RAIN  62  59  90 SE17G24   30.13R
TEMPLE         CLOUDY    66  61  82 SE10G26   30.05F
KILLEEN-SKYLRK CLOUDY    66  61  82 S17G25    30.04F
FORT HOOD      LGT RAIN  68  65  90 SE14G24   30.05F
$$

TXZ095>097-106>112-122>126-135>138-148>153-164>167-220500-
EAST TEXAS

CITY           SKY/WX    TMP DP  RH WIND       PRES   REMARKS
PARIS          CLOUDY    59  55  88 SE13      30.16R
TYLER          CLOUDY    60  56  86 SE14      30.15R
LONGVIEW       CLOUDY    59  54  83 SE16      30.18R
JACKSONVILLE   CLOUDY    59  58  95 SE7       30.18S
NACOGDOCHES    CLOUDY    57  54  88 SE12G18   30.19F
LUFKIN         LGT RAIN  60  56  86 E7        30.19R FOG
$$

SUPPLEMENTAL OBSERVATIONS (CENTRAL)

CITY           SKY/WX    TMP DP  RH WIND       PRES   REMARKS
$$

SUPPLEMENTAL OBSERVATIONS (WEST)

CITY           SKY/WX    TMP DP  RH WIND       PRES   REMARKS
$$

SUPPLEMENTAL OBSERVATIONS (EAST)

CITY           SKY/WX    TMP DP  RH WIND       PRES   REMARKS
$$

SUPPLEMENTAL OBSERVATIONS ARE A COLLECTION OF AUTOMATED INSTRUMENTS
THAT ARE MAINTAINED BY A VARIETY OF FEDERAL AND STATE AGENCIES.
CERTAIN ELEMENTS...SUCH AS HUMIDITY VALUES AND SUSTAINED WIND
SPEEDS...MAY BE ESTIMATED.